Commit Graph

  • f4b2836c8a feat: improve chat feedback navigation codex/h5-qa-experience Nelson 2026-08-31 11:41:56 +08:00
  • 5740bd26e7 feat: improve audit exports and admin analytics Nelson 2026-08-25 18:49:56 +08:00
  • 910e67bd89 feat: 完善人工关注与内容合规配置 Nelson 2026-08-24 17:49:56 +08:00
  • 6ffdd2c259 feat: 支持按权益名称导入用户 Nelson 2026-08-19 15:11:49 +08:00
  • efe835be81 feat: 完善周期报告与用户行为分析 Nelson 2026-08-19 11:53:34 +08:00
  • 833763c461 feat: refine topic insights and learner experience Nelson 2026-08-17 12:42:16 +08:00
  • 77399df060 feat: support configurable card variables and layouts Nelson 2026-08-14 13:36:53 +08:00
  • f952d6dc58 feat: 支持 Agent 并发批测与洞察导出 Nelson 2026-08-13 17:25:22 +08:00
  • 3faecab6ac feat: 增加 Agent Excel 批量测试 Nelson 2026-08-12 17:00:50 +08:00
  • c4231f268b fix: 优化反馈日期筛选控件 Nelson 2026-08-11 18:58:11 +08:00
  • 83b259af2d feat: improve async feedback and export workflow Nelson 2026-08-11 18:45:39 +08:00
  • ff4ba1148b feat: reveal encrypted config secrets on demand Nelson 2026-08-11 18:20:22 +08:00
  • 71541f9a22 fix: refresh voice config only on chat lifecycle Nelson 2026-08-11 17:49:00 +08:00
  • 74213a363f fix: separate voice credentials and refresh feature toggle Nelson 2026-08-11 17:46:56 +08:00
  • fd2da26d10 feat: add admin permissions voice input analytics and feedback Nelson 2026-08-11 17:17:59 +08:00
  • 3b9215cc3d feat: redesign system configuration workspace Nelson 2026-08-04 15:07:01 +08:00
  • c4de4e8c56 fix: optimize sso integration layout Nelson 2026-08-03 19:11:41 +08:00
  • cd3c875106 feat: isolate external application conversations Nelson 2026-08-03 18:57:19 +08:00
  • 26109648af feat: 增加可信应用免登录接入 Nelson 2026-08-03 18:28:40 +08:00
  • 59c306f88f fix: 精简AI失败重试文案 Nelson 2026-08-03 18:04:27 +08:00
  • 1954f461af feat: 增加AI回复手动重试 Nelson 2026-08-03 17:55:02 +08:00
  • 8e6da99dcb feat: 提升并发容量默认配置 Nelson 2026-08-03 17:42:17 +08:00
  • 8ee4d65b7b feat: 增加内容生成配置管理 Nelson 2026-08-03 17:23:42 +08:00
  • 3f8ff30bbc fix: 完善个人中心卡片管理 Nelson 2026-08-03 16:49:31 +08:00
  • 8fb24f94ab fix: 优化个人中心卡片切换交互 Nelson 2026-08-03 16:38:15 +08:00
  • 861a0ae7d5 refactor: 拆分管理后台页面并按需加载 Nelson 2026-08-03 16:22:03 +08:00
  • b2b56f43bb feat: 完成权益到期与续期闭环 Nelson 2026-08-03 14:32:38 +08:00
  • 20ed4875b8 feat: 新增用户端个人中心 Nelson 2026-08-03 12:38:00 +08:00
  • 7747334ea4 feat: 将成长档案调整为近期实修回顾 Nelson 2026-08-03 12:25:51 +08:00
  • d2e08ab36c feat: 异步沉淀主题摘要和成长档案 Nelson 2026-08-03 11:35:58 +08:00
  • a3946013f5 feat: 优化权益管理并完成一期验收 Nelson 2026-07-31 18:49:48 +08:00
  • b6aff78aac feat: align agent preview with learner topics Nelson 2026-07-31 18:21:36 +08:00
  • ab2c945f0b feat: make chat model routing configurable Nelson 2026-07-31 17:57:26 +08:00
  • 85a6da5949 feat: route fixed information chats by model Nelson 2026-07-31 17:42:25 +08:00
  • da313f88ed feat: route background ai workloads by model Nelson 2026-07-31 17:25:16 +08:00
  • 0008903e8d feat: schedule periodic reports asynchronously Nelson 2026-07-31 17:11:21 +08:00
  • a589a25bdc feat: persist cleaned question insights Nelson 2026-07-31 16:50:11 +08:00
  • 6c03faf10c feat: enrich question insights classification Nelson 2026-07-31 16:40:13 +08:00
  • 99e23b33ec feat: add periodic practice reports Nelson 2026-07-31 16:37:25 +08:00
  • 88ed92d78c feat: add admin user detail insights Nelson 2026-07-31 16:30:39 +08:00
  • 763c78bd7e feat: expand user growth record view Nelson 2026-07-31 16:25:50 +08:00
  • a84650bb9e feat: add ai cost tracking foundation Nelson 2026-07-31 16:24:35 +08:00
  • ec9f8a015a feat: soften quota messaging Nelson 2026-07-31 16:10:35 +08:00
  • 4e872febd5 feat: expose knowledge type priority traces Nelson 2026-07-31 16:09:27 +08:00
  • 429636f3e8 feat: add class share drafts Nelson 2026-07-31 16:07:18 +08:00
  • d8fde93b69 feat: add teacher help cards Nelson 2026-07-31 15:53:47 +08:00
  • 79094d0832 feat: align agent preview user context Nelson 2026-07-31 15:48:40 +08:00
  • 3e60a6da42 feat: add topic summaries and growth profiles Nelson 2026-07-31 15:34:03 +08:00
  • 884dc765ad feat: add entitlement plans and topic sessions Nelson 2026-07-31 15:22:11 +08:00
  • ad2161497f feat: add question insight analytics Nelson 2026-07-31 11:39:59 +08:00
  • e426f12e22 fix: highlight full knowledge search terms Nelson 2026-07-30 17:14:51 +08:00
  • 1f82b89295 fix: improve chat detail page navigation Nelson 2026-07-30 15:32:56 +08:00
  • 918ef5fa79 fix: speed up chat detail pagination Nelson 2026-07-30 15:21:26 +08:00
  • 8e2dc1d781 fix: paginate chat detail messages Nelson 2026-07-30 15:09:05 +08:00
  • 162658384f fix: deduplicate knowledge content search results Nelson 2026-07-30 14:45:20 +08:00
  • 77a899e24c fix: align agent no-hit handling Nelson 2026-07-30 14:36:09 +08:00
  • d1f573108e feat: add knowledge content search Nelson 2026-07-30 11:02:04 +08:00
  • c2655361b5 feat: add agent response depth control Nelson 2026-07-20 11:36:18 +08:00
  • 537978082a fix: preserve agent debug conversation context Nelson 2026-07-17 16:06:43 +08:00
  • cadf44e0b8 fix: allow direct knowledge deletion Nelson 2026-07-17 15:34:23 +08:00
  • 821cb26930 feat: enforce knowledge type source hierarchy Nelson 2026-07-17 15:14:18 +08:00
  • d647a3d44b feat: apply knowledge type retrieval priority Nelson 2026-07-17 15:12:34 +08:00
  • 9173267e09 fix(chat): refine markdown typography Nelson 2026-07-17 14:33:26 +08:00
  • c7bafda135 feat(agent): add debug output switches Nelson 2026-07-17 14:19:23 +08:00
  • a879dc2ff1 feat(agent): control reasoning visibility Nelson 2026-07-17 14:05:54 +08:00
  • bfaf2ebf67 feat(agent): stream admin debug preview Nelson 2026-07-17 13:47:05 +08:00
  • 13fed0467a feat(chat): add configurable streaming output Nelson 2026-07-17 13:34:27 +08:00
  • f7076569a7 feat(knowledge): add batch synchronization Nelson 2026-07-17 13:20:41 +08:00
  • dde28aba83 fix(rag): route exercise titles to knowledge base Nelson 2026-07-17 12:31:56 +08:00
  • 6f07c70f1f fix(rag): keep practice headings with details Nelson 2026-07-17 12:16:30 +08:00
  • e3634eb26c refactor(knowledge): keep latest version only Nelson 2026-07-16 18:24:49 +08:00
  • 9ba8fb6e0c feat(knowledge): auto-publish successful syncs Nelson 2026-07-16 18:07:17 +08:00
  • 921b56cfb9 fix(agent): keep response policy in managed prompt Nelson 2026-07-16 17:16:51 +08:00
  • 1b5fcc4d52 fix(agent): enforce complete homework answers Nelson 2026-07-16 17:03:04 +08:00
  • 6c02662d3b feat(agent): persist production generation settings Nelson 2026-07-16 16:07:11 +08:00
  • 245b6b3eca fix(rag): recall complete course homework lists Nelson 2026-07-16 15:48:40 +08:00
  • cbbdb41b80 fix(admin): restore knowledge preview scrolling Nelson 2026-07-16 14:19:33 +08:00
  • c3f24d0ccd feat(admin): add knowledge content preview Nelson 2026-07-16 10:39:46 +08:00
  • 56c9f2f359 fix(rag): retrieve complete course assignments Nelson 2026-07-15 22:09:52 +08:00
  • ba1840233c refactor(chat): simplify thinking status text Nelson 2026-07-13 20:18:42 +08:00
  • e4a391aa08 fix(agent): serialize retrieval trace responses Nelson 2026-07-13 19:37:12 +08:00
  • 128d444a76 fix(admin): correct login page copyright Nelson 2026-07-13 17:32:39 +08:00
  • 653317ca7d feat(admin): redesign branded login page Nelson 2026-07-13 17:28:27 +08:00
  • 971440ebff fix: 修复添加学员启用开关布局 Nelson 2026-07-13 16:05:28 +08:00
  • bbd19cf9ed fix: 修复会话上下文记忆链路 Nelson 2026-07-13 15:43:29 +08:00
  • dda2e040ca feat: explain agent generation parameters Nelson 2026-07-13 15:17:09 +08:00
  • a8bb8b068c fix: show agent generation parameters directly Nelson 2026-07-13 14:47:56 +08:00
  • 44ab895149 feat: add prompt history management Nelson 2026-07-13 14:06:45 +08:00
  • cb3b91b101 fix: move storage stats to dashboard Nelson 2026-07-13 13:32:41 +08:00
  • 750a57a390 fix: invalidate agent cache on knowledge changes Nelson 2026-07-13 13:18:52 +08:00
  • 00d53c2569 perf: paginate admin audit lists Nelson 2026-07-13 13:09:15 +08:00
  • 0864f9305b fix: prevent agent debug from blocking chat Nelson 2026-07-13 12:27:07 +08:00
  • 2453816364 fix: stabilize agent knowledge dropdown Nelson 2026-07-13 12:09:43 +08:00
  • 120fe185f9 fix: complete admin knowledge audit improvements Nelson 2026-07-13 11:40:34 +08:00
  • 82e0c02bac docs: 补充知识库交互修复验证结果 Nelson 2026-07-12 15:56:02 +08:00
  • b5047ca7e4 fix: 恢复知识库开关并修复弹层组件 Nelson 2026-07-12 15:51:45 +08:00
  • 390f0a0cbf docs: 记录知识库开关与弹层交互修复 Nelson 2026-07-12 15:47:34 +08:00
  • 64a5052351 docs: 记录知识库管理闭环修复结果 Nelson 2026-07-12 15:35:25 +08:00
  • e337897b7a fix: 修复知识库唯一约束迁移兼容性 Nelson 2026-07-12 15:31:17 +08:00
  • 8266d845c0 fix: 补齐知识库元数据管理与生命周期校验 Nelson 2026-07-12 15:30:23 +08:00